Hourly Data Report for November 20, 2011

HALIFAX STANFIELD INT'L A
NOVA SCOTIA

44°52'48.060" N
63°30'00.050" W
145.40 m
8202250
71395
YHZ

Download Data

Hourly Data (November 2011)
Hourly Data Report for November 20, 2011
TIME
LST
Temp Definition
°C
Dew Point Definition
°C
Rel Hum Definition
%
Precip. Amount Definition
mm

Wind Dir Definition
10's deg

Wind Spd Definition
km/h
Visibility Definition
km
Stn Press Definition
kPa
Hmdx Definition


Wind Chill Definition


Weather Definition


00:00 5.9 4.5 91   21 17 24.1 100.55     Mainly Clear
01:00 6.3 4.6 89   22 26 24.1 100.48     Mainly Clear
02:00 7.2 5.1 86   22 30 24.1 100.45     Mostly Cloudy
03:00 7.5 5.2 85   22 32 24.1 100.38     Mostly Cloudy
04:00 7.3 5.4 88   21 37 24.1 100.29     Mostly Cloudy
05:00 7.6 5.6 87   22 39 24.1 100.25     Mostly Cloudy
06:00 7.9 5.7 86   22 39 24.1 100.21     Mostly Cloudy
07:00 7.5 6.1 91   20 30 24.1 100.18     Mainly Clear
08:00 8.4 6.8 90   20 24 24.1 100.13     Mostly Cloudy
09:00 9.7 7.9 89   20 37 24.1 100.01     Mostly Cloudy
10:00 10.8 8.6 86   22 48 24.1 99.91     Cloudy
11:00 11.3 8.6 83   21 48 24.1 99.76     Cloudy
12:00 11.8 8.7 81   21 56 24.1 99.62     Mostly Cloudy
13:00 12.6 9.2 80   20 48 24.1 99.45     Mostly Cloudy
14:00 12.4 9.1 80   22 41 24.1 99.35     Mostly Cloudy
15:00 11.9 9.1 83   20 41 24.1 99.31     Mostly Cloudy
16:00 11.9 8.6 80   21 35 24.1 99.28     Mostly Cloudy
17:00 11.2 8.5 83   22 28 24.1 99.30     Mostly Cloudy
18:00 11.8 8.9 82   25 20 24.1 99.40     Cloudy
19:00 11.7 8.4 80   25 20 24.1 99.45     Mostly Cloudy
20:00 10.9 8.0 82   24 17 24.1 99.50     Mainly Clear
21:00 10.0 7.4 84   25 15 24.1 99.56     Mainly Clear
22:00 9.6 7.2 85   24 15 24.1 99.58     Mostly Cloudy
23:00 9.5 6.8 83   26 11 24.1 99.61     Mostly Cloudy

Notes on Data Quality.

Legend

  • E = Estimated
  • M = Missing
  • NA = Not Available*
  • [empty] = Indicates an unobserved value
Date modified: